Weather History for Moffett NAS, CA

Change the Weather History Date:

Monday, October 31, 2011

  Actual Average Record
Temperature  
Mean Temperature 67 °F 60 °F  
Max Temperature 79 °F 70 °F 85 °F (1966)
Min Temperature 54 °F 51 °F 41 °F (2002)
Degree Days  
Heating Degree Days 0    
Month to date heating degree days 23  
Since 1 July heating degree days 33  
Cooling Degree Days 2    
Month to date cooling degree days 72  
Year to date cooling degree days 455  
Growing Degree Days 16 (Base 50)    
Moisture  
Dew Point 54 °F    
Average Humidity 63    
Maximum Humidity 84    
Minimum Humidity 42    
Precipitation  
Precipitation 0.00 in 0.04 in 0.14 in (2008)
Month to date precipitation 1.00 0.64  
Year to date precipitation 10.50 10.48  
Since 1 July precipitation 1.00 0.85  
Sea Level Pressure  
Sea Level Pressure 30.04 in    
Wind  
Wind Speed 3 mph (NNW)    
Max Wind Speed 15 mph    
Max Gust Speed 17 mph    
Visibility 10 miles    
Events      
T = Trace of Precipitation, MM = Missing Value Source: NWS Daily Summary

Daily Weather History Graph

Daily Weather History Graph

Search for Another Location

Airport:

Trip Planner

Search our weather history database for the weather conditions in past years. The results will help you decide how hot, cold, wet, or windy it might be!

Date:

Astronomy

Oct. 31, 2011 Rise Set
Actual Time 7:31 AM PDT 6:11 PM PDT
Civil Twilight 7:04 AM PDT 6:38 PM PDT
Nautical Twilight 6:33 AM PDT 7:09 PM PDT
Astronomical Twilight 6:03 AM PDT 7:39 PM PDT
Moon 12:40 PM PDT (10/31) 10:55 PM PDT (10/31)
Length of Visible Light 11h 33m
Length of Day
10h 39m
Waxing Crescent, 31% of the Moon is Illuminated
Oct 31
Waxing Crescent
Nov 2
First Quarter
Nov 10
Full
Nov 18
Last Quarter
Nov 24
New

Hourly Weather History & Observations

Time (PDT) Temp. Dew Point Humidity Pressure Visibility Wind Dir Wind Speed Gust Speed Precip Events Conditions
12:56 AM 61.0 °F 52.0 °F 72% 30.09 in 10.0 mi Calm Calm - N/A   Clear
1:56 AM 59.0 °F 50.0 °F 72% 30.09 in 10.0 mi Calm Calm - N/A   Clear
2:56 AM 59.0 °F 50.0 °F 72% 30.08 in 10.0 mi Calm Calm - N/A   Clear
3:56 AM 57.0 °F 50.0 °F 77% 30.06 in 10.0 mi Calm Calm - N/A   Clear
4:56 AM 55.9 °F 48.9 °F 77% 30.06 in 10.0 mi Calm Calm - N/A   Clear
5:56 AM 57.0 °F 48.9 °F 74% 30.07 in 10.0 mi SW 3.5 mph - N/A   Clear
7:56 AM 57.0 °F 50.0 °F 77% 30.07 in 9.0 mi Calm Calm - N/A   Clear
8:56 AM 61.0 °F 53.1 °F 75% 30.09 in 10.0 mi Calm Calm - N/A   Clear
9:56 AM 66.0 °F 55.0 °F 68% 30.08 in 10.0 mi Calm Calm - N/A   Clear
10:56 AM 68.0 °F 55.9 °F 65% 30.08 in 10.0 mi North 4.6 mph - N/A   Clear
11:56 AM 71.1 °F 55.9 °F 59% 30.06 in 10.0 mi North 4.6 mph - N/A   Clear
12:56 PM 75.0 °F 55.0 °F 50% 30.04 in 10.0 mi North 5.8 mph - N/A   Clear
1:56 PM 75.9 °F 55.0 °F 48% 30.02 in 10.0 mi North 9.2 mph - N/A   Clear
2:56 PM 78.1 °F 54.0 °F 43% 29.99 in 10.0 mi NNW 4.6 mph - N/A   Clear
3:56 PM 75.9 °F 54.0 °F 46% 29.98 in 10.0 mi North 11.5 mph - N/A   Clear
4:56 PM 72.0 °F 57.0 °F 59% 29.98 in 10.0 mi NW 6.9 mph - N/A   Clear
5:56 PM 69.1 °F 57.0 °F 65% 29.98 in 10.0 mi NW 5.8 mph - N/A   Clear
6:56 PM 66.9 °F 57.0 °F 70% 29.99 in 10.0 mi North 6.9 mph - N/A   Clear
7:56 PM 66.0 °F 57.0 °F 73% 29.99 in 10.0 mi NNW 4.6 mph - N/A   Clear
8:56 PM 64.9 °F 57.0 °F 75% 30.01 in 10.0 mi Calm Calm - N/A   Clear
9:56 PM 62.1 °F 55.0 °F 78% 30.01 in 10.0 mi Calm Calm - N/A   Clear
10:56 PM 61.0 °F 55.0 °F 81% 30.00 in 10.0 mi Calm Calm - N/A   Clear
11:56 PM 61.0 °F 55.0 °F 81% 30.03 in 10.0 mi NW 5.8 mph - N/A   Clear